GW4109 Weather Reports


time (UTC)temp
F
wind
direction
speed
knots
gust
knots
rain 1hr
in
rain 24hr
in
rain mn
in
humidity
%
barometer
mb
20260510054721 80 192 0.9 1.7 0.00 0.00 0.00 26 1012.2
20260510054217 80 227 0.0 1.7 0.00 0.00 0.00 27 1012.2
20260510053711 81 102 0.9 2.6 0.00 0.00 0.00 27 1012.0
20260510053208 80 205 0.0 1.7 0.00 0.00 0.00 28 1012.1
20260510052704 80 212 1.7 1.7 0.00 0.00 0.00 29 1012.0
20260510052200 80 182 0.0 1.7 0.00 0.00 0.00 28 1012.1
20260510051656 81 205 0.0 1.7 0.00 0.00 0.00 28 1012.1
20260510051153 83 76 0.9 2.6 0.00 0.00 0.00 27 1012.1
20260510050650 83 126 1.7 1.7 0.00 0.00 0.00 26 1012.0
20260510050147 84 118 0.9 0.9 0.00 0.00 0.00 26 1011.8
20260510045643 84 231 0.9 2.6 0.00 0.00 0.00 25 1011.8
20260510045140 85 263 0.0 2.6 0.00 0.00 0.00 24 1011.8
20260510044636 86 192 0.9 1.7 0.00 0.00 0.00 23 1011.8
20260510044134 87 250 0.9 1.7 0.00 0.00 0.00 22 1011.8
20260510043630 88 217 0.0 3.5 0.00 0.00 0.00 20 1011.8
20260510043126 89 308 0.0 3.5 0.00 0.00 0.00 19 1011.7
20260510042624 89 99 5.2 9.6 0.00 0.00 0.00 17 1011.5
20260510042119 88 116 0.9 4.3 0.00 0.00 0.00 21 1011.5
20260510041617 88 89 1.7 3.5 0.00 0.00 0.00 20 1011.7
20260510041114 89 244 0.0 1.7 0.00 0.00 0.00 20 1011.5
20260510040612 90 228 2.6 3.5 0.00 0.00 0.00 19 1011.5
20260510040108 90 313 0.0 5.2 0.00 0.00 0.00 18 1011.4
20260510035604 89 276 1.7 1.7 0.00 0.00 0.00 20 1011.4
20260510035103 89 65 0.9 2.6 0.00 0.00 0.00 20 1011.4
20260510034601 90 269 0.0 1.7 0.00 0.00 0.00 20 1011.4
20260510034059 90 282 3.5 4.3 0.00 0.00 0.00 19 1011.3
20260510033554 91 135 0.0 1.7 0.00 0.00 0.00 19 1011.0
20260510033052 89 226 1.7 4.3 0.00 0.00 0.00 20 1011.0
20260510032549 89 253 2.6 3.5 0.00 0.00 0.00 20 1010.9
20260510032044 90 303 0.0 1.7 0.00 0.00 0.00 20 1010.8
20260510031544 91 357 1.7 3.5 0.00 0.00 0.00 19 1010.7
20260510031041 91 251 1.7 3.5 0.00 0.00 0.00 20 1010.4
20260510030536 91 129 1.7 2.6 0.00 0.00 0.00 18 1010.3
20260510030034 92 354 0.9 1.7 0.00 0.00 0.00 17 1010.3
20260510025531 93 12 1.7 3.5 0.00 0.00 0.00 16 1010.4
20260510025028 93 260 7.8 7.8 0.00 0.00 0.00 16 1010.2
20260510024525 93 242 7.0 10.4 0.00 0.00 0.00 17 1010.2
20260510024021 93 243 3.5 7.8 0.00 0.00 0.00 17 1010.0
20260510023517 94 263 4.3 9.6 0.00 0.00 0.00 17 1009.9
20260510023015 93 259 3.5 7.8 0.00 0.00 0.00 18 1010.1
20260510022514 93 274 5.2 11.3 0.00 0.00 0.00 17 1009.9
20260510022014 93 262 5.2 9.6 0.00 0.00 0.00 18 1010.0
20260510021511 93 257 7.8 13.0 0.00 0.00 0.00 18 1009.8
20260510021008 93 244 4.3 7.8 0.00 0.00 0.00 19 1009.9
20260510020502 94 237 4.3 11.3 0.00 0.00 0.00 19 1009.8
20260510015958 94 255 3.5 12.2 0.00 0.00 0.00 19 1009.9
20260510015454 94 249 10.4 11.3 0.00 0.00 0.00 19 1009.7
20260510014949 94 254 9.6 12.2 0.00 0.00 0.00 20 1009.9
20260510014447 94 248 7.8 11.3 0.00 0.00 0.00 20 1009.7
20260510013944 94 299 5.2 13.0 0.00 0.00 0.00 21 1009.8
20260510013438 95 277 9.6 14.8 0.00 0.00 0.00 19 1009.6
20260510012934 95 280 6.1 12.2 0.00 0.00 0.00 20 1009.6
20260510012429 96 255 7.0 14.8 0.00 0.00 0.00 20 1009.7
20260510011924 98 253 9.6 11.3 0.00 0.00 0.00 19 1009.8
20260510011419 98 271 4.3 13.0 0.00 0.00 0.00 18 1009.7
20260510010916 99 322 6.1 13.0 0.00 0.00 0.00 18 1009.8
20260510010413 100 291 2.6 7.8 0.00 0.00 0.00 17 1009.8
20260510005910 100 253 4.3 11.3 0.00 0.00 0.00 17 1009.7
20260510005406 100 301 9.6 10.4 0.00 0.00 0.00 17 1009.7
20260510004903 100 310 7.0 13.9 0.00 0.00 0.00 16 1009.4
20260510004401 102 301 7.8 10.4 0.00 0.00 0.00 15 1009.4
20260510003858 101 332 9.6 11.3 0.00 0.00 0.00 15 1009.6
20260510003355 102 304 7.8 9.6 0.00 0.00 0.00 15 1009.4
20260510002854 102 298 7.8 11.3 0.00 0.00 0.00 15 1009.5
20260510002352 102 259 7.0 9.6 0.00 0.00 0.00 15 1009.5
20260510001848 103 261 9.6 10.4 0.00 0.00 0.00 14 1009.6
20260510001346 102 314 3.5 9.6 0.00 0.00 0.00 14 1009.6
20260510000842 103 317 6.1 7.8 0.00 0.00 0.00 14 1009.6
20260510000341 103 309 5.2 7.8 0.00 0.00 0.00 14 1009.5
20260509235836 103 303 3.5 8.7 0.00 0.00 0.00 14 1009.7
20260509235332 103 312 5.2 10.4 0.00 0.00 0.00 14 1009.6
20260509234828 104 246 6.1 9.6 0.00 0.00 0.00 14 1009.8
20260509234325 104 261 6.1 8.7 0.00 0.00 0.00 11 1009.8
20260509233824 105 280 4.3 9.6 0.00 0.00 0.00 13 1009.8
20260509233321 104 255 7.0 12.2 0.00 0.00 0.00 12 1009.7
20260509232816 104 256 6.1 8.7 0.00 0.00 0.00 12 1009.6
20260509232314 104 264 5.2 13.0 0.00 0.00 0.00 12 1009.6
20260509231810 104 256 6.1 13.0 0.00 0.00 0.00 11 1009.7
20260509231307 104 249 7.8 13.9 0.00 0.00 0.00 11 1009.9
20260509230805 104 251 7.0 10.4 0.00 0.00 0.00 11 1009.9
20260509230302 105 251 5.2 11.3 0.00 0.00 0.00 10 1009.9
20260509225756 105 246 7.0 10.4 0.00 0.00 0.00 10 1009.9
20260509225253 105 247 9.6 13.0 0.00 0.00 0.00 11 1010.1
20260509224749 104 243 8.7 13.0 0.00 0.00 0.00 10 1010.1
20260509224247 104 245 8.7 12.2 0.00 0.00 0.00 10 1010.0
20260509223743 105 243 5.2 10.4 0.00 0.00 0.00 11 1010.0
20260509223240 105 240 6.1 12.2 0.00 0.00 0.00 10 1010.2
20260509222737 105 260 7.8 12.2 0.00 0.00 0.00 11 1010.2
20260509222232 105 315 6.1 9.6 0.00 0.00 0.00 11 1010.1
20260509221728 105 311 4.3 5.2 0.00 0.00 0.00 10 1010.2
20260509221224 106 226 2.6 8.7 0.00 0.00 0.00 10 1010.4
20260509220720 105 226 5.2 13.0 0.00 0.00 0.00 10 1010.5
20260509220217 107 188 0.9 8.7 0.00 0.00 0.00 10 1010.4
20260509215713 107 202 2.6 6.1 0.00 0.00 0.00 10 1010.7
20260509215209 104 113 2.6 6.1 0.00 0.00 0.00 9 1010.5
20260509214707 104 5 0.9 3.5 0.00 0.00 0.00 10 1010.7
20260509214204 105 133 3.5 4.3 0.00 0.00 0.00 9 1010.8
20260509213701 105 127 5.2 6.1 0.00 0.00 0.00 9 1010.8
20260509213156 105 149 1.7 4.3 0.00 0.00 0.00 9 1010.9
20260509212653 105 107 2.6 5.2 0.00 0.00 0.00 9 1011.0
20260509212151 104 74 1.7 4.3 0.00 0.00 0.00 9 1011.0
20260509211646 105 88 1.7 6.1 0.00 0.00 0.00 9 1011.1
20260509211143 105 44 1.7 3.5 0.00 0.00 0.00 9 1011.3
20260509210640 104 126 2.6 5.2 0.00 0.00 0.00 8 1011.4
20260509210137 104 40 1.7 4.3 0.00 0.00 0.00 8 1011.4
20260509205632 103 56 1.7 5.2 0.00 0.00 0.00 9 1011.4
20260509205127 104 89 2.6 7.0 0.00 0.00 0.00 8 1011.5
20260509204623 104 112 1.7 4.3 0.00 0.00 0.00 8 1011.5
20260509204120 103 299 1.7 2.6 0.00 0.00 0.00 8 1011.7
20260509203615 102 123 1.7 7.8 0.00 0.00 0.00 8 1011.7
20260509203109 104 182 0.9 3.5 0.00 0.00 0.00 8 1011.8
20260509202608 103 125 0.9 6.1 0.00 0.00 0.00 8 1012.2
20260509202104 101 118 3.5 4.3 0.00 0.00 0.00 8 1012.1
20260509201604 103 105 3.5 3.5 0.00 0.00 0.00 8 1012.2
20260509201103 103 132 4.3 4.3 0.00 0.00 0.00 8 1012.2
20260509200602 102 323 0.0 3.5 0.00 0.00 0.00 9 1012.2
20260509200053 100 238 2.6 3.5 0.00 0.00 0.00 9 1012.4
20260509195549 102 17 1.7 4.3 0.00 0.00 0.00 8 1012.4
20260509195043 101 235 0.0 3.5 0.00 0.00 0.00 8 1012.4
20260509194538 101 100 2.6 4.3 0.00 0.00 0.00 8 1012.5
20260509194037 100 66 0.0 3.5 0.00 0.00 0.00 8 1012.7
20260509193536 101 234 0.9 4.3 0.00 0.00 0.00 8 1012.7
20260509193033 100 122 2.6 3.5 0.00 0.00 0.00 8 1012.8
20260509192529 100 114 2.6 7.0 0.00 0.00 0.00 8 1012.8
20260509192025 100 29 0.9 3.5 0.00 0.00 0.00 9 1012.8
20260509191519 100 103 5.2 5.2 0.00 0.00 0.00 8 1012.9
20260509191015 100 119 6.1 7.0 0.00 0.00 0.00 8 1013.0
20260509190512 99 116 3.5 5.2 0.00 0.00 0.00 8 1013.0
20260509190010 100 81 1.7 6.1 0.00 0.00 0.00 9 1012.9
20260509185507 100 227 3.5 4.3 0.00 0.00 0.00 8 1013.0
20260509185003 100 190 0.9 2.6 0.00 0.00 0.00 8 1013.0
20260509184502 100 167 0.9 1.7 0.00 0.00 0.00 8 1013.2
20260509183958 99 104 1.7 3.5 0.00 0.00 0.00 8 1013.2
20260509183452 98 73 1.7 6.1 0.00 0.00 0.00 9 1013.3
20260509182949 99 226 0.0 4.3 0.00 0.00 0.00 8 1013.3
20260509182445 99 145 2.6 3.5 0.00 0.00 0.00 8 1013.4
20260509181943 100 195 0.9 3.5 0.00 0.00 0.00 8 1013.3
20260509181441 98 290 1.7 2.6 0.00 0.00 0.00 9 1013.7
20260509180938 98 193 1.7 2.6 0.00 0.00 0.00 8 1013.6
20260509180433 97 120 3.5 5.2 0.00 0.00 0.00 9 1013.7
20260509175931 97 173 0.0 3.5 0.00 0.00 0.00 9 1013.5
20260509175427 96 197 0.0 3.5 0.00 0.00 0.00 9 1013.7
20260509174923 96 124 1.7 3.5 0.00 0.00 0.00 8 1013.6
20260509174419 96 98 2.6 4.3 0.00 0.00 0.00 10 1013.7
20260509173915 97 124 2.6 4.3 0.00 0.00 0.00 9 1013.5
20260509173410 97 78 3.5 5.2 0.00 0.00 0.00 10 1013.7
20260509172906 95 33 0.9 2.6 0.00 0.00 0.00 11 1013.8
20260509172403 95 119 2.6 7.8 0.00 0.00 0.00 11 1013.6
20260509171858 95 304 0.0 2.6 0.00 0.00 0.00 11 1013.6
20260509171354 94 103 0.0 4.3 0.00 0.00 0.00 10 1013.6
20260509170846 95 82 1.7 3.5 0.00 0.00 0.00 11 1013.5
20260509170341 95 93 2.6 2.6 0.00 0.00 0.00 11 1013.7
20260509165836 95 67 2.6 3.5 0.00 0.00 0.00 10 1013.6
20260509165330 95 341 0.0 3.5 0.00 0.00 0.00 12 1013.5
20260509164827 95 124 1.7 2.6 0.00 0.00 0.00 11 1013.5
20260509164323 95 114 1.7 1.7 0.00 0.00 0.00 11 1013.4
20260509163820 94 191 0.0 1.7 0.00 0.00 0.00 11 1013.5
20260509163317 94 21 0.9 3.5 0.00 0.00 0.00 12 1013.6
20260509162816 94 343 1.7 1.7 0.00 0.00 0.00 12 1013.6
20260509162314 92 257 0.9 1.7 0.00 0.00 0.00 11 1013.5
20260509161811 94 84 1.7 2.6 0.00 0.00 0.00 11 1013.6
20260509161307 93 278 1.7 1.7 0.00 0.00 0.00 12 1013.5
20260509160802 93 161 0.0 0.9 0.00 0.00 0.00 12 1013.4
20260509160259 91 46 0.0 3.5 0.00 0.00 0.00 13 1013.5
20260509155754 92 110 0.0 2.6 0.00 0.00 0.00 13 1013.5
20260509155251 92 338 1.7 2.6 0.00 0.00 0.00 13 1013.4
20260509154747 92 87 1.7 1.7 0.00 0.00 0.00 12 1013.5
20260509154244 91 11 0.0 1.7 0.00 0.00 0.00 12 1013.6
20260509153741 91 3 0.0 1.7 0.00 0.00 0.00 14 1013.3
20260509153237 92 110 0.0 0.9 0.00 0.00 0.00 14 1013.5
20260509152734 90 113 0.0 1.7 0.00 0.00 0.00 14 1013.5
20260509152230 92 6 0.0 1.7 0.00 0.00 0.00 16 1013.5
20260509151727 90 73 0.0 1.7 0.00 0.00 0.00 15 1013.6
20260509151224 88 84 1.7 1.7 0.00 0.00 0.00 16 1013.5
20260509150722 88 33 0.0 1.7 0.00 0.00 0.00 19 1013.6
20260509150220 87 349 0.0 1.7 0.00 0.00 0.00 17 1013.3
20260509145716 87 359 1.7 2.6 0.00 0.00 0.00 18 1013.3
20260509145211 87 328 1.7 1.7 0.00 0.00 0.00 16 1013.4
20260509144708 89 34 0.0 1.7 0.00 0.00 0.00 15 1013.4
20260509144205 86 67 0.0 0.9 0.00 0.00 0.00 16 1013.3
20260509143702 85 34 0.9 1.7 0.00 0.00 0.00 16 1013.4
20260509143159 84 75 0.9 1.7 0.00 0.00 0.00 16 1013.2
20260509142655 84 94 1.7 2.6 0.00 0.00 0.00 15 1013.4
20260509142152 84 58 0.0 1.7 0.00 0.00 0.00 14 1013.2
20260509141647 82 125 0.0 0.9 0.00 0.00 0.00 15 1013.1
20260509141144 80 140 0.0 0.9 0.00 0.00 0.00 18 1013.0
20260509140641 79 174 0.0 0.9 0.00 0.00 0.00 19 1012.9
20260509140139 78 224 0.0 0.9 0.00 0.00 0.00 19 1012.9
20260509135636 76 304 0.0 0.9 0.00 0.00 0.00 19 1012.9
20260509135134 75 226 1.7 1.7 0.00 0.00 0.00 18 1012.8
20260509134630 73 278 1.7 2.6 0.00 0.00 0.00 17 1013.1
20260509134128 72 205 1.7 1.7 0.00 0.00 0.00 17 1013.0
20260509133625 70 197 0.0 1.7 0.00 0.00 0.00 17 1013.0
20260509133122 70 198 1.7 1.7 0.00 0.00 0.00 18 1012.9
20260509132620 68 301 0.0 1.7 0.00 0.00 0.00 17 1012.7
20260509132118 67 249 0.9 1.7 0.00 0.00 0.00 19 1012.7
20260509131614 67 222 0.9 1.7 0.00 0.00 0.00 20 1012.7
20260509131111 66 301 0.9 1.7 0.00 0.00 0.00 18 1012.6
20260509130607 65 146 0.0 1.7 0.00 0.00 0.00 20 1012.5
20260509130104 66 244 0.0 1.7 0.00 0.00 0.00 20 1012.4
20260509125600 66 165 0.0 1.7 0.00 0.00 0.00 19 1012.4
20260509125057 67 194 0.9 1.7 0.00 0.00 0.00 18 1012.5
20260509124553 68 271 1.7 1.7 0.00 0.00 0.00 18 1012.4
20260509124051 67 269 0.0 1.7 0.00 0.00 0.00 18 1012.5
20260509123549 66 260 0.9 1.7 0.00 0.00 0.00 19 1012.4
20260509123045 66 266 1.7 2.6 0.00 0.00 0.00 18 1012.4
20260509122541 66 199 0.0 0.9 0.00 0.00 0.00 19 1012.4
20260509122038 66 299 0.0 1.7 0.00 0.00 0.00 19 1012.3
20260509121534 68 252 1.7 3.5 0.00 0.00 0.00 17 1012.1
20260509121032 68 279 1.7 1.7 0.00 0.00 0.00 17 1012.0
20260509120531 69 304 1.7 1.7 0.00 0.00 0.00 16 1012.2
20260509120029 69 139 0.0 1.7 0.00 0.00 0.00 17 1012.0
20260509115525 69 215 0.9 1.7 0.00 0.00 0.00 17 1012.0
20260509115023 67 188 0.9 1.7 0.00 0.00 0.00 18 1012.0
20260509114521 68 240 0.9 2.6 0.00 0.00 0.00 18 1012.0
20260509114020 68 194 0.0 1.7 0.00 0.00 0.00 19 1011.8
20260509113517 66 221 0.0 1.7 0.00 0.00 0.00 20 1012.2
20260509113015 66 258 0.0 1.7 0.00 0.00 0.00 20 1012.2
20260509112511 67 202 0.0 1.7 0.00 0.00 0.00 21 1012.1
20260509112008 69 218 0.0 1.7 0.00 0.00 0.00 22 1012.0
20260509111505 68 210 0.9 1.7 0.00 0.00 0.00 21 1012.1
20260509111002 68 197 0.0 1.7 0.00 0.00 0.00 20 1012.1
20260509110459 68 312 1.7 1.7 0.00 0.00 0.00 20 1012.2
20260509105956 66 193 0.0 1.7 0.00 0.00 0.00 21 1012.1
20260509105455 66 246 1.7 2.6 0.00 0.00 0.00 21 1012.1
20260509104951 66 226 1.7 3.5 0.00 0.00 0.00 21 1012.1
20260509104448 67 305 0.0 1.7 0.00 0.00 0.00 20 1012.2
20260509103946 68 218 0.0 1.7 0.00 0.00 0.00 19 1012.1
20260509103443 68 338 0.0 3.5 0.00 0.00 0.00 19 1012.3
20260509102941 68 157 1.7 1.7 0.00 0.00 0.00 18 1012.1
20260509102438 67 229 1.7 3.5 0.00 0.00 0.00 19 1012.2
20260509101934 68 269 0.0 1.7 0.00 0.00 0.00 20 1012.3
20260509101431 68 331 0.0 1.7 0.00 0.00 0.00 20 1012.2
20260509100928 67 196 0.9 1.7 0.00 0.00 0.00 20 1011.8
20260509100425 67 263 0.9 1.7 0.00 0.00 0.00 20 1012.4
20260509095922 67 243 0.0 1.7 0.00 0.00 0.00 20 1012.3
20260509095419 67 245 0.9 1.7 0.00 0.00 0.00 20 1012.4
20260509094916 68 235 1.7 1.7 0.00 0.00 0.00 21 1012.4
20260509094412 69 269 0.0 0.0 0.00 0.00 0.00 24 1012.4
20260509093910 69 196 0.0 1.7 0.00 0.00 0.00 25 1012.4
20260509093407 69 208 0.0 1.7 0.00 0.00 0.00 26 1012.4
20260509092906 68 185 0.9 1.7 0.00 0.00 0.00 26 1012.4
20260509092403 68 177 0.0 2.6 0.00 0.00 0.00 24 1012.5
20260509091901 68 293 0.9 1.7 0.00 0.00 0.00 23 1012.5
20260509091358 69 229 0.0 1.7 0.00 0.00 0.00 21 1012.6
20260509090855 70 233 0.0 1.7 0.00 0.00 0.00 20 1012.4
20260509090352 71 18 1.7 2.6 0.00 0.00 0.00 19 1012.9
20260509085850 72 66 0.0 0.9 0.00 0.00 0.00 18 1012.7
20260509085347 72 284 1.7 3.5 0.00 0.00 0.00 17 1012.5
20260509084843 72 226 0.0 1.7 0.00 0.00 0.00 17 1012.6
20260509084340 73 222 0.0 1.7 0.00 0.00 0.00 19 1012.7
20260509083838 72 147 0.9 1.7 0.00 0.00 0.00 19 1012.6
20260509083334 72 208 0.0 1.7 0.00 0.00 0.00 18 1012.5
20260509082831 73 176 0.0 1.7 0.00 0.00 0.00 18 1012.7
20260509082327 73 133 0.0 2.6 0.00 0.00 0.00 17 1012.8
20260509081825 72 201 0.0 1.7 0.00 0.00 0.00 17 1012.9
20260509081322 72 117 0.0 0.9 0.00 0.00 0.00 20 1012.7
20260509080820 72 244 0.9 1.7 0.00 0.00 0.00 19 1012.9
20260509080318 72 196 0.9 1.7 0.00 0.00 0.00 19 1013.0
20260509075816 71 174 0.9 1.7 0.00 0.00 0.00 20 1012.8
20260509075313 71 149 0.0 1.7 0.00 0.00 0.00 20 1013.0
20260509074809 72 242 0.0 0.9 0.00 0.00 0.00 21 1013.0
20260509074307 73 255 1.7 2.6 0.00 0.00 0.00 20 1013.0
20260509073803 74 298 0.9 0.9 0.00 0.00 0.00 21 1013.1
20260509073300 74 184 0.0 1.7 0.00 0.00 0.00 23 1013.0
20260509072756 74 227 1.7 1.7 0.00 0.00 0.00 23 1012.9
20260509072253 75 215 0.9 2.6 0.00 0.00 0.00 24 1013.1
20260509071750 74 206 1.7 1.7 0.00 0.00 0.00 27 1013.1
20260509071247 75 194 1.7 1.7 0.00 0.00 0.00 28 1013.3
20260509070744 75 211 0.9 1.7 0.00 0.00 0.00 23 1013.1
20260509070240 74 193 0.9 1.7 0.00 0.00 0.00 21 1013.2
20260509065737 73 213 1.7 1.7 0.00 0.00 0.00 21 1013.2
20260509065233 73 269 0.0 1.7 0.00 0.00 0.00 19 1013.2
20260509064729 75 218 1.7 1.7 0.00 0.00 0.00 19 1013.2
20260509064227 76 124 0.0 1.7 0.00 0.00 0.00 20 1013.3
20260509063724 77 230 0.0 0.9 0.00 0.00 0.00 21 1013.2
20260509063220 76 150 0.0 1.7 0.00 0.00 0.00 21 1013.1
20260509062718 77 235 0.0 1.7 0.00 0.00 0.00 20 1013.3
20260509062215 77 135 0.0 0.9 0.00 0.00 0.00 20 1013.2
20260509061712 77 194 2.6 2.6 0.00 0.00 0.00 17 1013.3
20260509061210 78 141 1.7 1.7 0.00 0.00 0.00 16 1013.4
20260509060707 78 98 0.9 2.6 0.00 0.00 0.00 16 1013.4
20260509060203 78 197 0.0 1.7 0.00 0.00 0.00 17 1013.3
20260509055659 78 217 0.0 1.7 0.00 0.00 0.00 17 1013.4
20260509055155 78 223 1.7 2.6 0.00 0.00 0.00 17 1013.4